QPF
0.00 0.00 0.00 0.00 0.00 0.00 0.02 0.02 0.01 0.01 0.00 0.00 0.00 0.00 0.00 0.01 0.04 0.07 0.02 0.00 0.00 0.00 0.00 0.00 0.00 0.00 0.01 0.01 0.01 0.01 0.01 0.01 0.01 0.01 0.01 0.01 0.01 0.01 0.01 0.01 0.01 0.01 0.00 0.00 0.01 0.01 0.01 0.01 0.00
0.00 0.00 0.00 0.00 0.00 0.02 0.02 0.01 0.01 0.01 0.00 0.00 0.00 0.00 0.00 0.00 0.01 0.01 0.00 0.00 0.00 0.00 0.00 0.00 0.00 0.00 0.00 0.00 0.01 0.01 0.01 0.01 0.01 0.01 0.01 0.01 0.01 0.02 0.02 0.02 0.01 0.01 0.00 0.00 0.00 0.01 0.01 0.01 0.00
0.00 0.00 0.00 0.00 0.00 0.04 0.04 0.01 0.01 0.01 0.00 0.00 0.00 0.00 0.01 0.01 0.01 0.01 0.01 0.00 0.00 0.00 0.00 0.00 0.00 0.00 0.00 0.00 0.00 0.01 0.01 0.01 0.01 0.01 0.01 0.02 0.01 0.01 0.02 0.02 0.02 0.01 0.01 0.01 0.00 0.01 0.00 0.01 0.01
0.00 0.00 0.00 0.00 0.00 0.02 0.05 0.02 0.01 0.00 0.00 0.00 0.00 0.00 0.01 0.01 0.01 0.01 0.01 0.00 0.01 0.01 0.00 0.00 0.00 0.00 0.00 0.00 0.01 0.01 0.01 0.01 0.01 0.01 0.01 0.01 0.01 0.01 0.02 0.02 0.02 0.02 0.01 0.01 0.01 0.01 0.01 0.01 0.01
0.00 0.00 0.00 0.00 0.01 0.03 0.05 0.05 0.02 0.01 0.00 0.00 0.01 0.02 0.01 0.01 0.01 0.01 0.00 0.00 0.00 0.01 0.01 0.00 0.00 0.00 0.00 0.01 0.01 0.01 0.01 0.01 0.01 0.01 0.01 0.01 0.02 0.02 0.02 0.01 0.01 0.01 0.01 0.01 0.01 0.01 0.01 0.01 0.01
0.00 0.00 0.00 0.01 0.02 0.03 0.03 0.05 0.02 0.01 0.01 0.01 0.02 0.08 0.03 0.01 0.01 0.01 0.00 0.00 0.01 0.01 0.01 0.01 0.00 0.00 0.01 0.01 0.01 0.01 0.01 0.01 0.01 0.01 0.01 0.01 0.01 0.01 0.01 0.02 0.02 0.02 0.01 0.02 0.02 0.02 0.02 0.02 0.01
0.00 0.00 0.00 0.00 0.01 0.01 0.02 0.02 0.01 0.01 0.01 0.02 0.03 0.06 0.04 0.02 0.01 0.00 0.00 0.01 0.01 0.02 0.02 0.02 0.02 0.02 0.02 0.02 0.01 0.01 0.01 0.01 0.01 0.01 0.01 0.01 0.01 0.01 0.01 0.02 0.01 0.01 0.01 0.02 0.02 0.02 0.02 0.02 0.02
0.00 0.00 0.00 0.00 0.01 0.01 0.03 0.04 0.01 0.01 0.01 0.02 0.04 0.04 0.02 0.02 0.02 0.01 0.01 0.01 0.02 0.02 0.02 0.02 0.03 0.04 0.06 0.05 0.03 0.03 0.02 0.02 0.01 0.01 0.01 0.01 0.01 0.02 0.02 0.01 0.01 0.02 0.02 0.02 0.02 0.02 0.03 0.02 0.02
0.00 0.00 0.00 0.01 0.02 0.01 0.02 0.02 0.00 0.01 0.02 0.02 0.02 0.03 0.01 0.01 0.01 0.02 0.02 0.02 0.02 0.02 0.02 0.02 0.05 0.08 0.10 0.09 0.06 0.06 0.05 0.04 0.03 0.03 0.03 0.03 0.04 0.05 0.05 0.04 0.04 0.03 0.03 0.02 0.02 0.02 0.03 0.03 0.02
0.00 0.00 0.01 0.01 0.01 0.03 0.02 0.01 0.00 0.00 0.01 0.02 0.04 0.04 0.02 0.00 0.01 0.03 0.03 0.04 0.03 0.02 0.02 0.04 0.08 0.08 0.06 0.08 0.09 0.08 0.07 0.07 0.07 0.08 0.07 0.06 0.07 0.08 0.08 0.10 0.06 0.04 0.04 0.04 0.05 0.05 0.05 0.06 0.07
0.00 0.01 0.01 0.03 0.02 0.04 0.04 0.02 0.00 0.01 0.02 0.03 0.08 0.05 0.02 0.01 0.02 0.04 0.05 0.07 0.05 0.03 0.03 0.04 0.04 0.05 0.06 0.08 0.11 0.11 0.12 0.11 0.10 0.10 0.09 0.09 0.09 0.08 0.09 0.10 0.08 0.07 0.06 0.07 0.09 0.07 0.07 0.08 0.10
0.00 0.03 0.06 0.05 0.06 0.08 0.07 0.03 0.00 0.01 0.02 0.03 0.06 0.04 0.01 0.01 0.03 0.04 0.04 0.04 0.05 0.05 0.04 0.03 0.03 0.04 0.05 0.07 0.08 0.08 0.09 0.11 0.09 0.08 0.08 0.10 0.09 0.09 0.09 0.09 0.09 0.10 0.10 0.11 0.13 0.12 0.10 0.09 0.09
0.00 0.03 0.07 0.05 0.06 0.09 0.07 0.02 0.00 0.00 0.01 0.01 0.02 0.04 0.02 0.01 0.01 0.03 0.04 0.06 0.05 0.05 0.05 0.04 0.04 0.03 0.04 0.05 0.07 0.08 0.09 0.09 0.08 0.08 0.09 0.09 0.09 0.08 0.09 0.08 0.09 0.09 0.09 0.12 0.14 0.12 0.11 0.10 0.09
0.00 0.01 0.03 0.04 0.05 0.05 0.06 0.02 0.01 0.01 0.02 0.01 0.02 0.03 0.03 0.03 0.02 0.03 0.04 0.05 0.04 0.03 0.03 0.03 0.03 0.04 0.04 0.05 0.07 0.08 0.08 0.09 0.09 0.08 0.09 0.09 0.10 0.11 0.11 0.11 0.10 0.09 0.09 0.10 0.11 0.12 0.11 0.11 0.11
0.00 0.00 0.01 0.02 0.06 0.05 0.02 0.02 0.02 0.03 0.04 0.02 0.03 0.04 0.05 0.04 0.05 0.05 0.04 0.04 0.03 0.02 0.02 0.03 0.03 0.04 0.05 0.06 0.07 0.07 0.08 0.09 0.09 0.08 0.09 0.09 0.11 0.12 0.13 0.13 0.13 0.11 0.09 0.09 0.08 0.09 0.11 0.10 0.11
0.00 0.01 0.02 0.03 0.05 0.04 0.01 0.03 0.04 0.04 0.02 0.03 0.04 0.06 0.07 0.08 0.08 0.07 0.06 0.05 0.04 0.04 0.04 0.03 0.03 0.06 0.07 0.07 0.07 0.07 0.08 0.09 0.09 0.09 0.09 0.08 0.09 0.09 0.10 0.13 0.13 0.11 0.10 0.10 0.10 0.11 0.11 0.11 0.13
0.00 0.01 0.03 0.04 0.03 0.02 0.01 0.04 0.04 0.03 0.03 0.03 0.03 0.10 0.09 0.09 0.11 0.10 0.07 0.08 0.08 0.07 0.06 0.05 0.06 0.08 0.07 0.06 0.06 0.08 0.09 0.09 0.09 0.08 0.07 0.06 0.05 0.06 0.08 0.10 0.11 0.11 0.10 0.10 0.09 0.11 0.11 0.12 0.13
0.01 0.03 0.04 0.05 0.04 0.01 0.01 0.04 0.04 0.01 0.03 0.04 0.04 0.08 0.12 0.09 0.09 0.11 0.10 0.08 0.08 0.08 0.07 0.07 0.06 0.08 0.08 0.07 0.06 0.08 0.10 0.09 0.08 0.07 0.06 0.04 0.05 0.05 0.07 0.08 0.08 0.08 0.09 0.10 0.10 0.09 0.09 0.11 0.11
0.03 0.03 0.03 0.04 0.03 0.02 0.01 0.04 0.05 0.02 0.02 0.03 0.04 0.05 0.06 0.05 0.05 0.05 0.08 0.07 0.07 0.06 0.07 0.07 0.06 0.09 0.09 0.09 0.08 0.09 0.10 0.08 0.07 0.07 0.07 0.05 0.05 0.05 0.06 0.07 0.09 0.08 0.08 0.08 0.08 0.08 0.08 0.10 0.12
0.01 0.05 0.05 0.02 0.02 0.02 0.02 0.04 0.06 0.03 0.02 0.02 0.03 0.05 0.04 0.02 0.02 0.02 0.02 0.03 0.03 0.05 0.05 0.06 0.06 0.07 0.08 0.10 0.12 0.12 0.11 0.09 0.10 0.10 0.11 0.08 0.06 0.06 0.06 0.08 0.09 0.09 0.09 0.09 0.08 0.09 0.08 0.09 0.11
0.01 0.03 0.03 0.02 0.03 0.02 0.02 0.04 0.05 0.05 0.03 0.02 0.03 0.06 0.04 0.02 0.02 0.01 0.01 0.02 0.03 0.03 0.04 0.05 0.05 0.06 0.08 0.09 0.10 0.09 0.09 0.08 0.10 0.11 0.10 0.08 0.06 0.05 0.05 0.05 0.06 0.08 0.08 0.08 0.07 0.08 0.08 0.09 0.11
0.01 0.02 0.02 0.01 0.01 0.01 0.01 0.04 0.05 0.06 0.06 0.03 0.04 0.07 0.04 0.03 0.03 0.02 0.01 0.02 0.03 0.04 0.04 0.04 0.06 0.07 0.08 0.09 0.10 0.10 0.10 0.10 0.10 0.08 0.08 0.07 0.06 0.04 0.03 0.03 0.04 0.05 0.07 0.08 0.06 0.06 0.07 0.07 0.09
0.02 0.01 0.01 0.00 0.00 0.01 0.01 0.02 0.05 0.06 0.07 0.06 0.08 0.06 0.04 0.03 0.03 0.03 0.02 0.03 0.04 0.05 0.05 0.05 0.06 0.06 0.07 0.09 0.10 0.11 0.10 0.10 0.09 0.08 0.07 0.06 0.06 0.05 0.04 0.05 0.05 0.05 0.06 0.06 0.06 0.06 0.07 0.07 0.07
0.04 0.01 0.00 0.00 0.00 0.01 0.02 0.03 0.06 0.06 0.05 0.07 0.08 0.06 0.05 0.03 0.03 0.03 0.02 0.02 0.05 0.06 0.06 0.06 0.06 0.07 0.08 0.08 0.08 0.08 0.09 0.09 0.09 0.09 0.09 0.08 0.09 0.08 0.07 0.05 0.05 0.05 0.05 0.04 0.04 0.05 0.06 0.07 0.08
0.04 0.02 0.02 0.03 0.03 0.04 0.05 0.04 0.04 0.05 0.05 0.06 0.07 0.08 0.06 0.05 0.05 0.04 0.04 0.04 0.04 0.05 0.06 0.06 0.07 0.08 0.09 0.08 0.07 0.07 0.07 0.08 0.10 0.12 0.13 0.11 0.09 0.08 0.07 0.06 0.06 0.06 0.05 0.04 0.05 0.06 0.07 0.07 0.07
0.03 0.01 0.02 0.04 0.04 0.04 0.03 0.04 0.04 0.03 0.02 0.02 0.03 0.04 0.07 0.10 0.08 0.06 0.05 0.03 0.03 0.03 0.04 0.06 0.07 0.07 0.08 0.09 0.08 0.08 0.09 0.08 0.10 0.13 0.13 0.11 0.09 0.08 0.07 0.06 0.06 0.05 0.05 0.05 0.07 0.07 0.07 0.06 0.06
0.02 0.01 0.01 0.01 0.02 0.04 0.03 0.03 0.04 0.03 0.03 0.03 0.03 0.04 0.06 0.07 0.05 0.05 0.04 0.03 0.02 0.02 0.03 0.04 0.05 0.07 0.07 0.07 0.08 0.08 0.08 0.08 0.08 0.08 0.08 0.07 0.06 0.06 0.05 0.04 0.04 0.04 0.05 0.05 0.05 0.06 0.05 0.05 0.05
0.01 0.01 0.01 0.01 0.02 0.04 0.05 0.07 0.10 0.07 0.05 0.05 0.03 0.02 0.03 0.04 0.06 0.09 0.06 0.04 0.02 0.02 0.02 0.03 0.05 0.05 0.06 0.05 0.05 0.05 0.06 0.06 0.06 0.07 0.06 0.06 0.07 0.06 0.05 0.04 0.04 0.03 0.04 0.04 0.05 0.05 0.04 0.04 0.05
0.00 0.00 0.00 0.01 0.02 0.04 0.07 0.10 0.12 0.10 0.05 0.05 0.03 0.01 0.02 0.02 0.03 0.05 0.04 0.03 0.02 0.02 0.02 0.02 0.02 0.02 0.02 0.03 0.03 0.03 0.05 0.05 0.06 0.06 0.06 0.06 0.05 0.04 0.03 0.03 0.03 0.03 0.03 0.04 0.05 0.04 0.02 0.02 0.03
0.00 0.00 0.00 0.01 0.02 0.02 0.05 0.07 0.04 0.05 0.04 0.05 0.02 0.01 0.01 0.02 0.02 0.03 0.03 0.03 0.03 0.02 0.01 0.01 0.01 0.01 0.02 0.03 0.03 0.03 0.02 0.03 0.04 0.05 0.04 0.04 0.03 0.03 0.03 0.02 0.02 0.02 0.03 0.03 0.03 0.03 0.01 0.01 0.02
MSLP
1008.79 1009.24 1009.66 1009.90 1009.89 1009.57 1008.99 1008.25 1007.51 1006.93 1006.62 1006.64 1006.97 1007.52 1008.17 1008.78 1009.26 1009.54 1009.67 1009.71 1009.78 1009.96 1010.33 1010.89 1011.59 1012.35 1013.06 1013.62 1014.02 1014.23 1014.32 1014.37 1014.46 1014.65 1014.96 1015.36 1015.80 1016.20 1016.50 1016.67 1016.71 1016.66 1016.58 1016.54 1016.56 1016.68 1016.86 1017.06 1017.23
1008.95 1009.44 1009.82 1009.96 1009.80 1009.34 1008.66 1007.87 1007.13 1006.58 1006.32 1006.39 1006.74 1007.27 1007.87 1008.42 1008.84 1009.11 1009.26 1009.38 1009.57 1009.90 1010.40 1011.07 1011.84 1012.61 1013.29 1013.81 1014.15 1014.34 1014.43 1014.50 1014.64 1014.88 1015.24 1015.65 1016.07 1016.42 1016.66 1016.75 1016.73 1016.65 1016.57 1016.54 1016.62 1016.78 1017.00 1017.22 1017.39
1009.08 1009.55 1009.84 1009.84 1009.54 1008.96 1008.20 1007.40 1006.71 1006.25 1006.09 1006.22 1006.60 1007.10 1007.64 1008.10 1008.44 1008.65 1008.80 1008.98 1009.27 1009.72 1010.35 1011.12 1011.95 1012.75 1013.44 1013.94 1014.27 1014.46 1014.58 1014.70 1014.88 1015.17 1015.53 1015.93 1016.30 1016.58 1016.74 1016.76 1016.70 1016.60 1016.55 1016.58 1016.71 1016.92 1017.18 1017.41 1017.57
1009.19 1009.58 1009.72 1009.57 1009.12 1008.44 1007.66 1006.90 1006.31 1005.99 1005.96 1006.19 1006.60 1007.07 1007.52 1007.86 1008.09 1008.23 1008.36 1008.56 1008.92 1009.47 1010.20 1011.07 1011.97 1012.82 1013.52 1014.04 1014.39 1014.61 1014.77 1014.94 1015.17 1015.48 1015.84 1016.20 1016.50 1016.70 1016.78 1016.75 1016.66 1016.59 1016.58 1016.67 1016.87 1017.14 1017.42 1017.65 1017.77
1009.28 1009.53 1009.50 1009.17 1008.58 1007.85 1007.08 1006.44 1006.01 1005.87 1006.00 1006.34 1006.78 1007.22 1007.57 1007.79 1007.88 1007.92 1007.99 1008.19 1008.59 1009.22 1010.04 1010.98 1011.95 1012.83 1013.56 1014.11 1014.49 1014.76 1014.96 1015.18 1015.46 1015.78 1016.12 1016.42 1016.66 1016.79 1016.80 1016.74 1016.66 1016.62 1016.67 1016.83 1017.08 1017.39 1017.68 1017.89 1017.97
1009.33 1009.40 1009.18 1008.69 1008.00 1007.24 1006.56 1006.06 1005.84 1005.91 1006.23 1006.68 1007.17 1007.57 1007.82 1007.90 1007.86 1007.78 1007.78 1007.96 1008.38 1009.05 1009.93 1010.92 1011.92 1012.83 1013.58 1014.15 1014.56 1014.86 1015.12 1015.38 1015.68 1016.00 1016.31 1016.57 1016.75 1016.82 1016.79 1016.72 1016.66 1016.67 1016.78 1017.00 1017.30 1017.63 1017.91 1018.08 1018.11
1009.32 1009.20 1008.80 1008.17 1007.42 1006.68 1006.12 1005.81 1005.82 1006.12 1006.62 1007.20 1007.72 1008.08 1008.24 1008.20 1008.02 1007.84 1007.78 1007.92 1008.34 1009.02 1009.91 1010.91 1011.91 1012.81 1013.56 1014.13 1014.56 1014.88 1015.17 1015.46 1015.76 1016.08 1016.37 1016.60 1016.73 1016.76 1016.72 1016.66 1016.64 1016.69 1016.86 1017.12 1017.45 1017.77 1018.02 1018.14 1018.12
1009.22 1008.92 1008.36 1007.64 1006.86 1006.21 1005.79 1005.69 1005.92 1006.44 1007.10 1007.79 1008.34 1008.68 1008.76 1008.61 1008.34 1008.08 1007.95 1008.06 1008.45 1009.11 1009.98 1010.94 1011.90 1012.76 1013.47 1014.02 1014.44 1014.78 1015.08 1015.38 1015.70 1016.01 1016.28 1016.48 1016.59 1016.61 1016.57 1016.53 1016.54 1016.64 1016.84 1017.13 1017.46 1017.75 1017.96 1018.03 1017.96
1009.02 1008.58 1007.92 1007.14 1006.40 1005.84 1005.58 1005.67 1006.10 1006.80 1007.60 1008.35 1008.92 1009.23 1009.25 1009.04 1008.71 1008.40 1008.24 1008.32 1008.67 1009.29 1010.10 1011.00 1011.88 1012.66 1013.30 1013.81 1014.20 1014.53 1014.84 1015.16 1015.48 1015.78 1016.05 1016.24 1016.34 1016.36 1016.34 1016.33 1016.37 1016.50 1016.72 1017.00 1017.30 1017.56 1017.72 1017.73 1017.62
1008.74 1008.21 1007.50 1006.73 1006.05 1005.60 1005.49 1005.74 1006.32 1007.13 1008.00 1008.77 1009.34 1009.62 1009.60 1009.37 1009.02 1008.70 1008.54 1008.60 1008.94 1009.50 1010.23 1011.02 1011.80 1012.48 1013.04 1013.49 1013.85 1014.17 1014.48 1014.81 1015.14 1015.46 1015.72 1015.92 1016.02 1016.06 1016.06 1016.08 1016.14 1016.28 1016.50 1016.76 1017.02 1017.22 1017.32 1017.30 1017.16
1008.45 1007.89 1007.18 1006.46 1005.87 1005.54 1005.54 1005.90 1006.54 1007.38 1008.24 1008.99 1009.52 1009.76 1009.74 1009.51 1009.19 1008.90 1008.77 1008.85 1009.16 1009.66 1010.30 1010.99 1011.65 1012.23 1012.70 1013.10 1013.43 1013.74 1014.08 1014.42 1014.77 1015.10 1015.38 1015.58 1015.71 1015.77 1015.80 1015.83 1015.91 1016.04 1016.24 1016.46 1016.66 1016.80 1016.85 1016.79 1016.63
1008.21 1007.68 1007.03 1006.39 1005.90 1005.66 1005.74 1006.13 1006.77 1007.55 1008.33 1008.99 1009.44 1009.64 1009.61 1009.42 1009.16 1008.96 1008.89 1009.00 1009.31 1009.76 1010.32 1010.90 1011.45 1011.94 1012.34 1012.70 1013.02 1013.35 1013.70 1014.07 1014.44 1014.79 1015.09 1015.31 1015.46 1015.54 1015.60 1015.65 1015.73 1015.85 1016.00 1016.17 1016.31 1016.39 1016.39 1016.30 1016.15
1008.11 1007.64 1007.08 1006.56 1006.16 1006.00 1006.10 1006.45 1007.00 1007.65 1008.28 1008.80 1009.14 1009.29 1009.26 1009.13 1008.97 1008.87 1008.89 1009.06 1009.38 1009.80 1010.29 1010.79 1011.25 1011.66 1012.03 1012.37 1012.70 1013.05 1013.43 1013.83 1014.23 1014.59 1014.90 1015.14 1015.30 1015.41 1015.49 1015.55 1015.64 1015.74 1015.86 1015.97 1016.05 1016.07 1016.03 1015.92 1015.77
1008.17 1007.80 1007.36 1006.95 1006.65 1006.52 1006.60 1006.86 1007.26 1007.71 1008.14 1008.48 1008.70 1008.79 1008.78 1008.72 1008.68 1008.70 1008.82 1009.07 1009.41 1009.82 1010.26 1010.70 1011.11 1011.48 1011.83 1012.17 1012.54 1012.92 1013.32 1013.74 1014.15 1014.52 1014.82 1015.06 1015.24 1015.37 1015.46 1015.55 1015.64 1015.73 1015.82 1015.88 1015.90 1015.88 1015.80 1015.69 1015.54
1008.39 1008.12 1007.80 1007.50 1007.28 1007.17 1007.19 1007.32 1007.53 1007.76 1007.98 1008.13 1008.22 1008.26 1008.27 1008.29 1008.36 1008.52 1008.76 1009.08 1009.46 1009.87 1010.29 1010.69 1011.06 1011.42 1011.78 1012.14 1012.53 1012.94 1013.37 1013.79 1014.18 1014.52 1014.81 1015.04 1015.21 1015.35 1015.48 1015.58 1015.69 1015.78 1015.85 1015.88 1015.87 1015.81 1015.71 1015.59 1015.47
1008.68 1008.51 1008.30 1008.10 1007.94 1007.84 1007.80 1007.79 1007.81 1007.82 1007.81 1007.79 1007.76 1007.75 1007.80 1007.90 1008.10 1008.38 1008.74 1009.14 1009.56 1009.98 1010.39 1010.77 1011.13 1011.49 1011.86 1012.26 1012.67 1013.10 1013.51 1013.90 1014.25 1014.55 1014.79 1014.98 1015.15 1015.30 1015.45 1015.60 1015.73 1015.84 1015.91 1015.93 1015.90 1015.82 1015.72 1015.61 1015.50
1008.95 1008.86 1008.76 1008.64 1008.54 1008.44 1008.33 1008.20 1008.04 1007.86 1007.66 1007.48 1007.36 1007.33 1007.40 1007.60 1007.92 1008.32 1008.78 1009.25 1009.72 1010.16 1010.56 1010.93 1011.29 1011.66 1012.05 1012.46 1012.88 1013.29 1013.68 1014.01 1014.29 1014.51 1014.69 1014.84 1014.99 1015.15 1015.33 1015.52 1015.70 1015.85 1015.94 1015.97 1015.94 1015.87 1015.77 1015.67 1015.60
1009.12 1009.10 1009.07 1009.04 1008.99 1008.90 1008.75 1008.51 1008.21 1007.86 1007.50 1007.20 1007.01 1006.97 1007.09 1007.37 1007.79 1008.30 1008.85 1009.39 1009.89 1010.34 1010.74 1011.12 1011.48 1011.85 1012.25 1012.66 1013.08 1013.46 1013.79 1014.05 1014.23 1014.36 1014.47 1014.57 1014.70 1014.88 1015.10 1015.34 1015.58 1015.78 1015.91 1015.97 1015.96 1015.90 1015.82 1015.76 1015.71
1009.14 1009.17 1009.22 1009.27 1009.28 1009.21 1009.02 1008.71 1008.29 1007.81 1007.34 1006.94 1006.70 1006.65 1006.82 1007.17 1007.68 1008.28 1008.90 1009.50 1010.03 1010.49 1010.89 1011.26 1011.63 1012.00 1012.40 1012.81 1013.19 1013.53 1013.79 1013.96 1014.06 1014.10 1014.13 1014.19 1014.31 1014.50 1014.76 1015.06 1015.36 1015.62 1015.80 1015.90 1015.93 1015.90 1015.86 1015.82 1015.82
1009.04 1009.12 1009.26 1009.39 1009.46 1009.42 1009.22 1008.84 1008.34 1007.75 1007.18 1006.71 1006.42 1006.36 1006.55 1006.96 1007.54 1008.20 1008.88 1009.52 1010.07 1010.55 1010.95 1011.32 1011.68 1012.06 1012.45 1012.84 1013.20 1013.49 1013.68 1013.78 1013.80 1013.77 1013.74 1013.77 1013.88 1014.10 1014.40 1014.75 1015.11 1015.42 1015.66 1015.80 1015.86 1015.87 1015.86 1015.86 1015.90
1008.90 1009.05 1009.28 1009.50 1009.64 1009.63 1009.42 1009.00 1008.42 1007.74 1007.07 1006.52 1006.18 1006.10 1006.30 1006.74 1007.35 1008.06 1008.77 1009.44 1010.01 1010.49 1010.90 1011.27 1011.64 1012.01 1012.40 1012.78 1013.11 1013.36 1013.51 1013.56 1013.52 1013.45 1013.40 1013.41 1013.53 1013.76 1014.10 1014.49 1014.88 1015.24 1015.51 1015.68 1015.78 1015.82 1015.85 1015.89 1015.95
1008.83 1009.09 1009.42 1009.74 1009.95 1009.97 1009.75 1009.29 1008.62 1007.85 1007.09 1006.45 1006.04 1005.92 1006.09 1006.52 1007.15 1007.87 1008.60 1009.28 1009.86 1010.35 1010.77 1011.14 1011.52 1011.90 1012.28 1012.66 1012.98 1013.22 1013.35 1013.38 1013.34 1013.25 1013.20 1013.21 1013.34 1013.59 1013.94 1014.35 1014.76 1015.12 1015.40 1015.60 1015.70 1015.77 1015.83 1015.90 1016.00
1008.94 1009.32 1009.76 1010.18 1010.46 1010.51 1010.28 1009.76 1009.02 1008.16 1007.29 1006.56 1006.06 1005.87 1005.99 1006.39 1007.00 1007.71 1008.44 1009.12 1009.71 1010.21 1010.63 1011.02 1011.40 1011.79 1012.19 1012.56 1012.90 1013.14 1013.29 1013.34 1013.30 1013.24 1013.20 1013.24 1013.38 1013.63 1013.98 1014.38 1014.77 1015.11 1015.38 1015.55 1015.66 1015.73 1015.80 1015.90 1016.02
1009.26 1009.76 1010.32 1010.82 1011.16 1011.23 1010.98 1010.42 1009.61 1008.65 1007.70 1006.87 1006.29 1006.02 1006.08 1006.42 1006.98 1007.66 1008.38 1009.05 1009.64 1010.14 1010.58 1010.98 1011.36 1011.77 1012.18 1012.58 1012.92 1013.20 1013.38 1013.46 1013.47 1013.44 1013.44 1013.49 1013.64 1013.88 1014.20 1014.55 1014.90 1015.19 1015.41 1015.55 1015.64 1015.70 1015.77 1015.87 1016.00
1009.76 1010.36 1011.02 1011.58 1011.95 1012.03 1011.77 1011.17 1010.31 1009.29 1008.27 1007.38 1006.73 1006.39 1006.38 1006.67 1007.18 1007.82 1008.50 1009.15 1009.73 1010.23 1010.67 1011.07 1011.48 1011.89 1012.32 1012.73 1013.11 1013.42 1013.64 1013.76 1013.82 1013.83 1013.86 1013.93 1014.06 1014.28 1014.54 1014.84 1015.11 1015.33 1015.49 1015.58 1015.62 1015.65 1015.70 1015.80 1015.94
1010.32 1011.00 1011.69 1012.29 1012.66 1012.74 1012.47 1011.86 1010.98 1009.96 1008.92 1008.00 1007.33 1006.96 1006.90 1007.14 1007.60 1008.20 1008.84 1009.46 1010.02 1010.51 1010.94 1011.35 1011.76 1012.18 1012.61 1013.04 1013.44 1013.77 1014.02 1014.19 1014.29 1014.34 1014.38 1014.45 1014.57 1014.74 1014.94 1015.16 1015.35 1015.49 1015.57 1015.60 1015.59 1015.58 1015.61 1015.69 1015.82
1010.80 1011.49 1012.17 1012.74 1013.10 1013.16 1012.88 1012.30 1011.46 1010.48 1009.50 1008.64 1008.00 1007.64 1007.59 1007.80 1008.23 1008.78 1009.38 1009.96 1010.49 1010.96 1011.38 1011.78 1012.18 1012.59 1013.02 1013.45 1013.86 1014.20 1014.48 1014.67 1014.78 1014.85 1014.90 1014.96 1015.05 1015.17 1015.31 1015.45 1015.56 1015.63 1015.64 1015.61 1015.56 1015.50 1015.50 1015.54 1015.64
1011.10 1011.71 1012.31 1012.80 1013.10 1013.13 1012.87 1012.34 1011.60 1010.74 1009.89 1009.16 1008.63 1008.35 1008.34 1008.57 1008.98 1009.49 1010.04 1010.58 1011.07 1011.50 1011.90 1012.28 1012.66 1013.07 1013.48 1013.90 1014.29 1014.64 1014.91 1015.10 1015.22 1015.28 1015.32 1015.36 1015.41 1015.48 1015.56 1015.64 1015.70 1015.71 1015.68 1015.60 1015.51 1015.43 1015.38 1015.39 1015.45
1011.13 1011.59 1012.04 1012.40 1012.59 1012.58 1012.34 1011.90 1011.31 1010.64 1010.00 1009.46 1009.11 1008.97 1009.05 1009.32 1009.73 1010.22 1010.73 1011.22 1011.66 1012.05 1012.42 1012.77 1013.13 1013.51 1013.90 1014.30 1014.66 1014.98 1015.23 1015.40 1015.50 1015.54 1015.56 1015.57 1015.59 1015.63 1015.68 1015.72 1015.75 1015.74 1015.69 1015.60 1015.49 1015.38 1015.30 1015.26 1015.27
1010.94 1011.18 1011.42 1011.60 1011.67 1011.61 1011.40 1011.06 1010.65 1010.21 1009.82 1009.54 1009.40 1009.44 1009.64 1009.98 1010.41 1010.88 1011.34 1011.77 1012.16 1012.50 1012.83 1013.15 1013.48 1013.84 1014.20 1014.56 1014.90 1015.18 1015.40 1015.54 1015.60 1015.62 1015.61 1015.60 1015.60 1015.62 1015.66 1015.70 1015.73 1015.72 1015.68 1015.60 1015.49 1015.37 1015.26 1015.18 1015.14
Thickness
5821 5827 5831 5827 5813 5804 5805 5828 5845 5845 5845 5855 5855 5845 5827 5816 5805 5791 5822 5833 5826 5816 5806 5800 5796 5792 5789 5785 5782 5779 5776 5774 5771 5769 5766 5764 5762 5760 5759 5757 5755 5754 5753 5751 5750 5749 5748 5747 5746
5822 5830 5828 5820 5803 5792 5807 5836 5842 5846 5850 5856 5851 5843 5829 5818 5824 5822 5826 5828 5823 5814 5805 5798 5793 5789 5786 5782 5779 5776 5773 5771 5768 5766 5763 5761 5759 5757 5755 5753 5752 5751 5749 5748 5747 5746 5745 5744 5743
5819 5827 5817 5812 5803 5803 5814 5842 5843 5853 5856 5851 5841 5839 5824 5816 5822 5823 5826 5828 5821 5812 5803 5794 5790 5786 5783 5779 5776 5773 5770 5767 5765 5762 5760 5758 5755 5753 5751 5750 5748 5747 5746 5745 5744 5743 5742 5741 5740
5818 5819 5815 5808 5806 5822 5830 5843 5848 5846 5846 5849 5839 5824 5821 5827 5827 5827 5829 5827 5818 5810 5801 5791 5787 5783 5779 5776 5773 5769 5766 5763 5761 5758 5756 5754 5751 5750 5748 5747 5745 5744 5743 5742 5741 5739 5739 5738 5737
5816 5810 5799 5803 5814 5830 5841 5849 5849 5838 5839 5842 5834 5813 5809 5825 5832 5829 5827 5824 5816 5808 5798 5788 5783 5780 5776 5772 5769 5765 5762 5760 5757 5755 5752 5750 5748 5746 5745 5743 5742 5741 5740 5739 5738 5736 5736 5735 5734
5805 5807 5793 5797 5817 5834 5847 5852 5846 5837 5837 5837 5824 5807 5801 5822 5823 5823 5824 5819 5814 5805 5794 5785 5780 5776 5772 5769 5765 5761 5758 5756 5753 5751 5749 5747 5745 5743 5742 5740 5739 5738 5737 5735 5735 5733 5733 5732 5732
5798 5799 5798 5810 5820 5830 5844 5850 5839 5833 5829 5831 5829 5804 5797 5812 5819 5822 5819 5815 5809 5801 5791 5783 5777 5773 5768 5765 5761 5758 5755 5752 5749 5747 5745 5743 5742 5740 5739 5737 5736 5734 5733 5732 5731 5730 5729 5729 5729
5811 5802 5801 5811 5814 5823 5844 5846 5845 5837 5827 5837 5831 5805 5793 5807 5817 5818 5814 5809 5804 5796 5788 5782 5776 5771 5766 5762 5758 5755 5752 5749 5746 5743 5741 5740 5739 5737 5736 5734 5733 5731 5730 5729 5728 5727 5726 5726 5726
5813 5792 5794 5810 5814 5823 5842 5836 5841 5844 5831 5828 5827 5818 5810 5813 5814 5809 5804 5799 5795 5790 5785 5780 5775 5770 5766 5761 5756 5752 5749 5745 5742 5740 5738 5736 5736 5735 5734 5732 5730 5728 5727 5726 5725 5724 5723 5723 5722
5805 5789 5803 5823 5829 5829 5833 5834 5836 5830 5819 5809 5809 5810 5810 5810 5806 5800 5795 5789 5786 5782 5781 5778 5774 5769 5765 5761 5754 5750 5747 5743 5740 5738 5736 5734 5734 5733 5733 5730 5727 5726 5724 5723 5722 5721 5720 5720 5720
5806 5797 5811 5821 5828 5829 5824 5827 5836 5824 5808 5807 5800 5797 5801 5801 5799 5795 5791 5786 5782 5780 5777 5775 5772 5767 5763 5758 5753 5749 5746 5742 5738 5736 5733 5732 5731 5731 5730 5727 5724 5722 5721 5720 5719 5718 5717 5718 5718
5803 5806 5813 5818 5823 5819 5817 5821 5824 5819 5813 5817 5810 5802 5799 5795 5794 5791 5787 5783 5780 5776 5773 5771 5768 5764 5759 5755 5751 5747 5744 5739 5736 5734 5730 5728 5727 5727 5726 5723 5721 5720 5718 5717 5717 5715 5716 5715 5715
5799 5803 5811 5815 5816 5816 5819 5817 5817 5813 5821 5818 5810 5801 5796 5795 5792 5789 5786 5781 5776 5770 5767 5766 5763 5759 5754 5750 5747 5744 5739 5736 5733 5730 5727 5724 5722 5721 5721 5719 5717 5716 5714 5713 5713 5712 5712 5711 5711
5804 5807 5808 5810 5812 5815 5808 5811 5812 5807 5814 5809 5802 5797 5795 5792 5789 5784 5779 5774 5770 5765 5762 5761 5758 5753 5749 5744 5740 5738 5735 5731 5729 5725 5722 5719 5717 5715 5714 5713 5712 5710 5709 5708 5707 5707 5707 5706 5706
5808 5798 5798 5806 5811 5812 5808 5796 5798 5807 5806 5799 5796 5793 5789 5787 5784 5778 5773 5769 5765 5762 5758 5755 5752 5748 5744 5740 5736 5733 5730 5727 5723 5719 5716 5713 5711 5710 5708 5707 5706 5704 5703 5703 5702 5701 5701 5701 5701
5797 5787 5778 5795 5804 5808 5797 5776 5791 5802 5798 5790 5790 5788 5783 5779 5776 5773 5769 5764 5761 5757 5753 5750 5748 5743 5738 5734 5731 5728 5725 5721 5717 5714 5710 5708 5706 5704 5703 5701 5699 5698 5697 5696 5695 5695 5694 5693 5693
5780 5770 5775 5787 5801 5803 5794 5777 5785 5794 5786 5784 5783 5780 5776 5771 5769 5767 5764 5759 5755 5752 5748 5744 5741 5737 5733 5729 5726 5723 5719 5715 5711 5708 5705 5702 5700 5699 5697 5695 5694 5693 5692 5690 5689 5688 5687 5685 5686
5764 5765 5773 5781 5793 5794 5788 5783 5786 5790 5787 5783 5777 5773 5772 5767 5764 5763 5759 5755 5751 5747 5742 5738 5735 5730 5727 5723 5720 5717 5713 5709 5705 5702 5699 5696 5694 5692 5691 5690 5688 5687 5685 5683 5682 5680 5680 5679 5679
5778 5770 5767 5781 5796 5788 5783 5781 5782 5788 5786 5781 5773 5770 5766 5763 5762 5759 5755 5751 5746 5740 5736 5732 5728 5725 5721 5717 5712 5709 5705 5703 5700 5697 5693 5690 5688 5686 5684 5682 5681 5680 5678 5676 5675 5673 5672 5672 5672
5775 5766 5769 5780 5792 5785 5778 5778 5784 5784 5780 5781 5774 5770 5764 5758 5754 5752 5748 5745 5740 5735 5731 5728 5724 5720 5716 5713 5708 5705 5700 5697 5694 5691 5687 5684 5682 5679 5678 5675 5674 5672 5671 5669 5668 5667 5665 5665 5665
5769 5766 5767 5772 5782 5784 5773 5765 5772 5780 5780 5779 5779 5774 5766 5757 5749 5745 5742 5739 5735 5729 5726 5723 5718 5715 5711 5708 5704 5699 5694 5690 5686 5683 5680 5678 5676 5673 5671 5669 5667 5665 5664 5662 5661 5660 5658 5657 5658
5764 5777 5776 5774 5767 5765 5770 5745 5761 5768 5765 5768 5769 5765 5759 5756 5748 5741 5737 5733 5729 5725 5722 5718 5713 5709 5706 5702 5697 5692 5686 5681 5678 5676 5674 5672 5670 5667 5665 5662 5661 5659 5657 5655 5655 5654 5653 5652 5651
5772 5782 5778 5774 5768 5762 5764 5749 5754 5762 5753 5755 5758 5758 5755 5751 5743 5735 5733 5729 5726 5721 5717 5712 5707 5702 5699 5695 5691 5685 5680 5676 5673 5670 5667 5664 5663 5660 5658 5656 5654 5652 5650 5648 5648 5647 5647 5646 5645
5780 5776 5773 5773 5767 5743 5748 5744 5738 5748 5749 5751 5751 5750 5748 5745 5739 5732 5729 5725 5720 5716 5711 5706 5700 5695 5691 5688 5683 5679 5673 5669 5665 5661 5658 5656 5654 5653 5651 5649 5647 5644 5643 5643 5642 5641 5640 5640 5640
5770 5752 5736 5733 5732 5732 5751 5741 5737 5752 5759 5754 5747 5744 5742 5738 5730 5725 5722 5718 5714 5710 5705 5700 5694 5688 5685 5681 5677 5673 5668 5663 5659 5655 5651 5649 5647 5644 5643 5641 5639 5638 5637 5637 5636 5635 5634 5634 5633
5759 5752 5728 5711 5713 5726 5741 5733 5737 5755 5758 5757 5752 5745 5738 5731 5724 5718 5715 5713 5708 5704 5699 5695 5689 5683 5679 5675 5670 5666 5662 5657 5653 5649 5646 5642 5640 5638 5636 5634 5633 5632 5631 5631 5630 5629 5628 5628 5628
5754 5752 5757 5735 5728 5719 5730 5734 5735 5747 5746 5747 5742 5736 5728 5724 5718 5714 5711 5707 5702 5698 5693 5689 5683 5677 5673 5669 5664 5660 5656 5651 5647 5643 5641 5637 5634 5632 5630 5629 5628 5626 5625 5624 5623 5622 5622 5622 5621
5768 5761 5746 5729 5707 5699 5713 5719 5718 5724 5729 5733 5730 5725 5722 5717 5713 5709 5705 5701 5697 5692 5688 5683 5677 5672 5668 5664 5659 5655 5650 5645 5641 5638 5634 5631 5628 5625 5624 5622 5621 5619 5619 5618 5617 5616 5616 5615 5614
5755 5751 5744 5737 5729 5708 5698 5706 5729 5727 5730 5727 5725 5722 5718 5712 5708 5703 5698 5695 5691 5687 5682 5676 5672 5667 5662 5658 5653 5648 5643 5639 5635 5632 5628 5625 5622 5620 5618 5617 5615 5614 5613 5612 5611 5610 5610 5609 5608
5758 5750 5742 5724 5720 5724 5713 5705 5733 5731 5731 5727 5721 5718 5714 5709 5704 5698 5694 5689 5685 5681 5676 5671 5667 5662 5657 5652 5647 5642 5637 5633 5629 5625 5622 5619 5616 5614 5612 5611 5609 5608 5607 5607 5605 5604 5604 5603 5602